Weather History for KCAR - December, 2012

Change the Weather History Date:

Thursday, December 6, 2012

  Actual Average Record
Temperature  
Mean Temperature 21 °F 22 °F  
Max Temperature 28 °F 30 °F 56 °F (2001)
Min Temperature 14 °F 15 °F -11 °F (1971)
Degree Days  
Heating Degree Days 44 43  
Month to date heating degree days 216 249  
Since 1 July heating degree days 2048 2394  
Cooling Degree Days 0 0  
Month to date cooling degree days 0 0  
Year to date cooling degree days 279 180  
Moisture  
Dew Point 13 °F    
Average Humidity 72    
Maximum Humidity 88    
Minimum Humidity 55    
Precipitation  
Precipitation T in 0.11 in 1.30 in (1952)
Month to date precipitation 0.63 0.70  
Year to date precipitation 36.17 35.92  
Snow  
Snow T in 0.70 in 11.90 in (1952)
Month to date snowfall 1.3 3.9  
Since 1 July snowfall 2.9 16.1  
Snow Depth 0.00 in    
Sea Level Pressure  
Sea Level Pressure 30.19 in    
Wind  
Wind Speed 12 mph (NNW)    
Max Wind Speed 29 mph    
Max Gust Speed 38 mph    
Visibility 9 miles    
Events Snow    
T = Trace of Precipitation, MM = Missing Value Source: NWS Daily Summary

Daily Weather History Graph

Daily Weather History Graph

Search for Another Location

Airport or City:

Trip Planner

Search our weather history database for the weather conditions in past years. The results will help you decide how hot, cold, wet, or windy it might be!

Date:

Astronomy

Dec. 06, 2012 Rise Set
Actual Time 7:02 AM EST 3:43 PM EST
Civil Twilight 6:27 AM EST 4:18 PM EST
Nautical Twilight 5:49 AM EST 4:57 PM EST
Astronomical Twilight 5:12 AM EST 5:33 PM EST
Moon 11:57 PM EST (12/6) 11:31 AM EST (12/6)
Length of Visible Light 9h 50m
Length of Day
8h 40m
Waning Gibbous, 49% of the Moon is Illuminated
Dec 6
Waning Gibbous
Dec 13
New
Dec 20
First Quarter
Dec 28
Full
Jan 4
Last Quarter

Hourly Weather History & Observations

Time (EST) Temp. Windchill Dew Point Humidity Pressure Visibility Wind Dir Wind Speed Gust Speed Precip Events Conditions
12:54 AM 27.0 °F 14.7 °F 16.0 °F 63% 29.96 in 10.0 mi NW 16.1 mph 28.8 mph N/A   Mostly Cloudy
1:54 AM 25.0 °F 12.6 °F 16.0 °F 69% 29.99 in 10.0 mi NW 15.0 mph 23.0 mph N/A   Mostly Cloudy
2:54 AM 25.0 °F 9.9 °F 14.0 °F 63% 30.02 in 10.0 mi NW 23.0 mph 36.8 mph N/A   Overcast
3:54 AM 24.1 °F 9.4 °F 14.0 °F 65% 30.05 in 10.0 mi NNW 20.7 mph 32.2 mph N/A   Overcast
4:54 AM 23.0 °F 9.6 °F 12.9 °F 65% 30.09 in 10.0 mi NW 16.1 mph 28.8 mph N/A   Overcast
5:54 AM 21.9 °F 6.2 °F 12.0 °F 66% 30.12 in 10.0 mi NNW 21.9 mph 31.1 mph 0.00 in   Overcast
6:54 AM 21.9 °F 6.5 °F 10.9 °F 63% 30.17 in 10.0 mi NNW 20.7 mph 27.6 mph 0.00 in   Overcast
7:54 AM 21.0 °F 7.1 °F 12.9 °F 71% 30.19 in 4.0 mi NNW 16.1 mph 25.3 mph 0.00 in Snow Light Snow
8:09 AM 21.2 °F 6.8 °F 14.0 °F 74% 30.16 in 1.8 mi NNW 17.3 mph - 0.00 in Snow Light Snow
8:16 AM 21.2 °F 9.5 °F 14.0 °F 74% 30.16 in 3.0 mi NNW 11.5 mph - 0.00 in Snow Light Snow
8:54 AM 21.9 °F 8.7 °F 10.9 °F 63% 30.21 in 9.0 mi NW 15.0 mph 24.2 mph 0.00 in   Overcast
9:54 AM 21.9 °F 6.9 °F 12.0 °F 66% 30.22 in 9.0 mi NW 19.6 mph 26.5 mph 0.00 in Snow Light Snow
10:54 AM 23.0 °F 11.1 °F 12.0 °F 63% 30.21 in 10.0 mi NW 12.7 mph 20.7 mph 0.00 in   Overcast
11:47 AM 24.8 °F 14.0 °F 12.2 °F 59% 30.18 in 10.0 mi NW 11.5 mph 20.7 mph N/A   Scattered Clouds
11:54 AM 24.1 °F 12.5 °F 12.0 °F 60% 30.22 in 10.0 mi NW 12.7 mph 19.6 mph N/A   Scattered Clouds
12:16 PM 24.8 °F 12.4 °F 12.2 °F 59% 30.18 in 10.0 mi NW 15.0 mph 23.0 mph N/A   Mostly Cloudy
12:33 PM 26.6 °F 14.7 °F 12.2 °F 55% 30.18 in 10.0 mi NW 15.0 mph 21.9 mph N/A   Scattered Clouds
12:54 PM 26.1 °F 14.5 °F 12.9 °F 58% 30.22 in 10.0 mi NNW 13.8 mph - N/A   Clear
1:54 PM 26.1 °F 14.0 °F 12.0 °F 55% 30.23 in 10.0 mi NW 15.0 mph 19.6 mph N/A   Clear
2:54 PM 25.0 °F 14.2 °F 12.0 °F 58% 30.24 in 10.0 mi NW 11.5 mph - N/A   Clear
3:54 PM 23.0 °F 15.8 °F 12.9 °F 65% 30.26 in 10.0 mi NNW 5.8 mph - N/A   Clear
4:54 PM 21.0 °F 11.4 °F 12.0 °F 68% 30.27 in 10.0 mi North 8.1 mph - N/A   Clear
5:54 PM 19.9 °F 13.4 °F 12.0 °F 71% 30.29 in 10.0 mi NNE 4.6 mph - N/A   Clear
6:54 PM 19.0 °F 12.3 °F 12.0 °F 74% 30.29 in 10.0 mi NNE 4.6 mph - N/A   Clear
8:54 PM 18.0 °F - 10.9 °F 74% 30.27 in 10.0 mi Calm Calm - N/A   Clear
9:54 PM 14.0 °F 8.2 °F 10.9 °F 88% 30.30 in 10.0 mi WSW 3.5 mph - N/A   Clear
10:54 PM 15.1 °F - 10.0 °F 80% 30.29 in 10.0 mi Calm Calm - N/A   Clear
11:54 PM 15.1 °F - 10.9 °F 84% 30.28 in 10.0 mi Calm Calm - N/A   Clear